TimeCST,TemperatureF,Dew PointF,Humidity,Sea Level PressureIn,VisibilityMPH,Wind Direction,Wind SpeedMPH,Gust SpeedMPH,PrecipitationIn,Events,Conditions,WindDirDegrees,DateUTC
12:15 AM,31.8,24.1,73,30.06,10.0,WNW,5.8,-,N/A,,Overcast,290,2012-12-11 06:15:00
12:35 AM,31.6,23.7,73,30.07,10.0,West,8.1,-,N/A,,Overcast,280,2012-12-11 06:35:00
12:55 AM,31.6,22.5,69,30.07,10.0,NW,4.6,-,N/A,,Overcast,320,2012-12-11 06:55:00
1:15 AM,31.6,23.0,70,30.08,10.0,West,8.1,-,N/A,,Overcast,280,2012-12-11 07:15:00
1:35 AM,31.6,22.5,69,30.08,10.0,WNW,8.1,-,N/A,,Overcast,290,2012-12-11 07:35:00
1:55 AM,31.5,22.1,68,30.08,10.0,NNW,5.8,-,N/A,,Overcast,330,2012-12-11 07:55:00
2:15 AM,30.9,23.2,73,30.08,10.0,WNW,4.6,-,N/A,,Mostly Cloudy,290,2012-12-11 08:15:00
2:35 AM,30.7,22.8,72,30.08,10.0,Calm,Calm,-,N/A,,Overcast,0,2012-12-11 08:35:00
2:55 AM,31.1,23.4,73,30.09,10.0,Calm,Calm,-,N/A,,Overcast,0,2012-12-11 08:55:00
3:15 AM,30.9,24.6,77,30.09,10.0,Calm,Calm,-,N/A,,Overcast,0,2012-12-11 09:15:00
3:35 AM,30.9,24.1,76,30.09,10.0,Calm,Calm,-,N/A,,Overcast,0,2012-12-11 09:35:00
3:55 AM,30.6,24.1,77,30.09,10.0,Calm,Calm,-,N/A,,Mostly Cloudy,0,2012-12-11 09:55:00
4:15 AM,30.2,24.6,80,30.08,10.0,West,3.5,-,N/A,,Overcast,260,2012-12-11 10:15:00
4:35 AM,30.6,24.8,79,30.09,10.0,WSW,4.6,-,N/A,,Overcast,250,2012-12-11 10:35:00
4:55 AM,30.9,24.4,77,30.09,10.0,WSW,6.9,-,N/A,,Overcast,250,2012-12-11 10:55:00
5:15 AM,30.6,25.3,81,30.09,10.0,West,3.5,-,N/A,,Mostly Cloudy,260,2012-12-11 11:15:00
5:35 AM,29.1,25.9,88,30.10,10.0,WSW,4.6,-,N/A,,Clear,240,2012-12-11 11:35:00
5:55 AM,28.9,24.8,84,30.10,10.0,West,5.8,-,N/A,,Clear,260,2012-12-11 11:55:00
6:15 AM,28.4,24.6,86,30.10,10.0,West,4.6,-,N/A,,Clear,270,2012-12-11 12:15:00
6:35 AM,27.9,24.4,87,30.11,10.0,WSW,3.5,-,N/A,,Clear,250,2012-12-11 12:35:00
6:55 AM,27.5,24.4,88,30.12,10.0,SW,3.5,-,N/A,,Clear,230,2012-12-11 12:55:00
7:15 AM,27.3,24.3,88,30.12,10.0,SSW,3.5,-,N/A,,Clear,210,2012-12-11 13:15:00
7:35 AM,27.3,24.4,89,30.13,10.0,South,3.5,-,N/A,,Clear,190,2012-12-11 13:35:00
7:55 AM,28.0,24.8,88,30.13,10.0,SSW,5.8,-,N/A,,Clear,200,2012-12-11 13:55:00
8:15 AM,28.8,24.4,84,30.14,10.0,SSW,5.8,-,N/A,,Clear,210,2012-12-11 14:15:00
8:35 AM,29.3,24.1,81,30.15,10.0,South,5.8,-,N/A,,Clear,190,2012-12-11 14:35:00
8:55 AM,30.6,24.4,78,30.15,10.0,SSW,5.8,-,N/A,,Clear,200,2012-12-11 14:55:00
9:15 AM,31.1,23.4,73,30.15,10.0,SSW,9.2,-,N/A,,Clear,200,2012-12-11 15:15:00
9:35 AM,32.0,23.9,72,30.15,10.0,SSW,10.4,-,N/A,,Clear,210,2012-12-11 15:35:00
9:55 AM,32.2,24.4,73,30.16,10.0,SW,11.5,-,N/A,,Clear,220,2012-12-11 15:55:00
10:15 AM,33.1,25.2,73,30.16,10.0,South,13.8,-,N/A,,Clear,190,2012-12-11 16:15:00
10:35 AM,33.4,25.2,72,30.16,10.0,SSW,12.7,-,N/A,,Clear,200,2012-12-11 16:35:00
10:55 AM,34.0,25.0,70,30.16,10.0,SSW,11.5,-,N/A,,Clear,200,2012-12-11 16:55:00
11:15 AM,34.7,25.0,68,30.15,10.0,South,12.7,-,N/A,,Clear,190,2012-12-11 17:15:00
11:35 AM,35.4,25.0,66,30.15,10.0,SSW,10.4,16.1,N/A,,Clear,200,2012-12-11 17:35:00
11:55 AM,36.3,25.5,65,30.14,10.0,SW,9.2,17.3,N/A,,Clear,220,2012-12-11 17:55:00
12:15 PM,37.0,25.7,64,30.13,10.0,SW,12.7,-,N/A,,Clear,230,2012-12-11 18:15:00
12:35 PM,37.4,24.4,60,30.13,10.0,SSW,9.2,-,N/A,,Clear,200,2012-12-11 18:35:00
12:55 PM,38.1,24.3,57,30.13,10.0,SW,10.4,18.4,N/A,,Clear,230,2012-12-11 18:55:00
1:15 PM,38.5,24.1,56,30.13,10.0,SSW,11.5,-,N/A,,Clear,210,2012-12-11 19:15:00
1:35 PM,38.8,23.9,55,30.13,10.0,SW,11.5,17.3,N/A,,Clear,230,2012-12-11 19:35:00
1:55 PM,39.2,24.4,56,30.13,10.0,SSW,13.8,-,N/A,,Clear,210,2012-12-11 19:55:00
2:15 PM,39.4,24.4,55,30.12,10.0,WSW,9.2,-,N/A,,Clear,240,2012-12-11 20:15:00
2:35 PM,39.7,24.6,55,30.13,10.0,SW,10.4,-,N/A,,Clear,230,2012-12-11 20:35:00
2:55 PM,39.7,24.6,55,30.13,10.0,SW,8.1,-,N/A,,Clear,230,2012-12-11 20:55:00
3:15 PM,39.7,25.2,56,30.13,10.0,SSW,8.1,-,N/A,,Clear,210,2012-12-11 21:15:00
3:35 PM,39.6,25.3,57,30.13,10.0,SW,8.1,-,N/A,,Clear,220,2012-12-11 21:35:00
3:55 PM,39.2,25.0,57,30.14,10.0,SSW,6.9,-,N/A,,Clear,200,2012-12-11 21:55:00
4:15 PM,38.3,25.9,61,30.14,10.0,South,5.8,-,N/A,,Clear,190,2012-12-11 22:15:00
4:35 PM,37.2,25.0,61,30.14,10.0,South,4.6,-,N/A,,Clear,180,2012-12-11 22:35:00
4:55 PM,36.1,25.0,64,30.14,10.0,South,4.6,-,N/A,,Clear,190,2012-12-11 22:55:00
5:15 PM,35.6,25.2,66,30.15,10.0,South,4.6,-,N/A,,Clear,180,2012-12-11 23:15:00
5:35 PM,35.2,25.2,67,30.15,10.0,Calm,Calm,-,N/A,,Clear,0,2012-12-11 23:35:00
5:55 PM,34.7,25.3,69,30.15,10.0,South,4.6,-,N/A,,Clear,180,2012-12-11 23:55:00
6:15 PM,34.7,24.6,67,30.16,10.0,Calm,Calm,-,N/A,,Clear,0,2012-12-12 00:15:00
6:35 PM,34.0,25.0,70,30.16,10.0,South,3.5,-,N/A,,Clear,170,2012-12-12 00:35:00
6:55 PM,33.8,24.6,69,30.16,10.0,SSE,3.5,-,N/A,,Clear,160,2012-12-12 00:55:00
7:15 PM,33.3,25.2,72,30.17,10.0,South,4.6,-,N/A,,Clear,180,2012-12-12 01:15:00
7:35 PM,33.1,24.8,72,30.18,10.0,South,4.6,-,N/A,,Clear,190,2012-12-12 01:35:00
7:55 PM,33.1,25.0,72,30.18,10.0,SSW,4.6,-,N/A,,Clear,200,2012-12-12 01:55:00
8:15 PM,32.5,25.5,75,30.19,10.0,SSW,5.8,-,N/A,,Clear,200,2012-12-12 02:15:00
8:35 PM,32.5,25.2,74,30.20,10.0,South,4.6,-,N/A,,Clear,190,2012-12-12 02:35:00
8:55 PM,32.0,25.9,78,30.20,10.0,South,4.6,-,N/A,,Clear,180,2012-12-12 02:55:00
9:15 PM,32.5,25.0,74,30.21,10.0,South,4.6,-,N/A,,Clear,190,2012-12-12 03:15:00
9:35 PM,32.2,25.3,76,30.21,10.0,South,4.6,-,N/A,,Clear,180,2012-12-12 03:35:00
9:55 PM,32.2,25.2,75,30.21,10.0,South,4.6,-,N/A,,Clear,170,2012-12-12 03:55:00
10:15 PM,32.0,25.5,77,30.22,10.0,South,3.5,-,N/A,,Clear,170,2012-12-12 04:15:00
10:35 PM,32.2,25.2,75,30.22,10.0,South,4.6,-,N/A,,Clear,180,2012-12-12 04:35:00
10:55 PM,32.2,25.2,75,30.23,10.0,South,4.6,-,N/A,,Clear,180,2012-12-12 04:55:00
11:15 PM,32.0,25.5,77,30.23,10.0,South,5.8,-,N/A,,Clear,180,2012-12-12 05:15:00
11:35 PM,32.0,25.7,78,30.24,10.0,South,4.6,-,N/A,,Clear,180,2012-12-12 05:35:00
11:55 PM,32.0,25.9,78,30.24,10.0,South,4.6,-,N/A,,Clear,180,2012-12-12 05:55:00